Temp
-4 -4 -4 -4 -4 -3 -3 -3 -3 -3 -3 -3 -3 -3 -3 -3 -3 -3 -4 -4 -4 -4 -4 -5 -5 -6 -6 -5 -5 -7 -7 -7 -7 -8 -7 -7 -8 -6 -5 -5 -6 -6 -6 -6 -6
-4 -4 -4 -4 -4 -4 -3 -3 -3 -3 -3 -3 -3 -3 -3 -3 -3 -3 -4 -4 -4 -4 -4 -5 -5 -6 -7 -6 -6 -8 -8 -8 -7 -8 -8 -7 -8 -5 -6 -7 -5 -6 -7 -7 -6
-4 -4 -4 -4 -4 -4 -4 -3 -3 -3 -3 -3 -3 -3 -3 -3 -3 -3 -4 -4 -4 -4 -4 -5 -6 -6 -8 -7 -6 -7 -8 -8 -8 -7 -8 -9 -8 -5 -6 -8 -6 -7 -7 -7 -6
-5 -5 -4 -4 -4 -4 -4 -4 -4 -4 -3 -3 -3 -3 -3 -3 -3 -4 -4 -4 -4 -4 -5 -5 -6 -7 -8 -8 -7 -8 -7 -7 -8 -8 -9 -8 -8 -5 -8 -7 -7 -7 -7 -7 -7
-5 -5 -5 -4 -4 -4 -4 -4 -4 -4 -4 -4 -3 -3 -3 -3 -3 -3 -4 -4 -4 -4 -5 -5 -6 -9 -7 -8 -8 -8 -8 -8 -8 -8 -8 -8 -8 -9 -9 -8 -8 -7 -7 -7 -7
-5 -5 -5 -5 -5 -5 -5 -4 -4 -4 -4 -4 -4 -4 -3 -3 -3 -3 -4 -4 -5 -5 -5 -5 -6 -7 -8 -8 -8 -7 -8 -8 -8 -8 -8 -8 -8 -7 -8 -8 -8 -7 -7 -7 -7
-5 -5 -5 -4 -5 -5 -5 -5 -5 -4 -4 -4 -4 -4 -4 -3 -3 -4 -4 -4 -5 -5 -5 -6 -6 -6 -9 -8 -7 -7 -8 -8 -8 -8 -8 -7 -8 -8 -8 -8 -8 -7 -7 -7 -7
-5 -5 -5 -5 -5 -5 -5 -5 -5 -5 -5 -5 -4 -4 -4 -4 -4 -4 -4 -4 -5 -5 -5 -6 -6 -6 -8 -8 -8 -8 -8 -7 -8 -7 -8 -6 -7 -7 -8 -8 -8 -7 -7 -7 -7
-5 -5 -5 -5 -5 -5 -5 -5 -5 -5 -5 -5 -5 -4 -4 -4 -4 -4 -4 -4 -5 -4 -5 -6 -6 -7 -8 -8 -8 -7 -7 -7 -7 -8 -7 -7 -7 -7 -8 -8 -8 -7 -7 -7 -7
-6 -6 -5 -5 -6 -5 -6 -6 -5 -5 -5 -5 -5 -5 -4 -4 -4 -4 -4 -4 -4 -4 -4 -6 -6 -7 -9 -8 -7 -7 -7 -7 -7 -8 -8 -8 -7 -7 -8 -8 -8 -9 -7 -7 -7
-6 -6 -6 -6 -6 -6 -6 -6 -6 -6 -6 -5 -6 -5 -5 -5 -5 -4 -4 -4 -4 -4 -4 -6 -7 -8 -8 -8 -7 -8 -7 -7 -7 -7 -7 -8 -8 -8 -8 -8 -8 -9 -7 -7 -7
-6 -6 -6 -6 -6 -6 -6 -6 -6 -6 -6 -6 -6 -6 -5 -5 -5 -5 -5 -5 -5 -4 -5 -6 -6 -9 -8 -7 -8 -8 -8 -7 -7 -7 -7 -7 -8 -8 -7 -8 -8 -7 -9 -9 -6
-6 -6 -6 -6 -6 -6 -6 -6 -6 -6 -6 -6 -6 -6 -6 -6 -6 -5 -5 -5 -5 -5 -5 -6 -8 -9 -8 -8 -8 -8 -7 -7 -8 -7 -7 -7 -8 -8 -7 -7 -7 -7 -7 -8 -7
-7 -7 -7 -7 -7 -7 -7 -7 -7 -7 -7 -6 -6 -6 -6 -6 -6 -6 -5 -5 -5 -5 -6 -6 -9 -9 -8 -8 -8 -7 -7 -8 -7 -7 -8 -7 -7 -8 -8 -7 -7 -7 -7 -7 -6
-7 -7 -7 -7 -7 -7 -7 -7 -7 -7 -8 -6 -6 -6 -6 -7 -6 -6 -6 -6 -5 -6 -6 -6 -7 -9 -8 -8 -8 -8 -8 -8 -8 -7 -6 -7 -6 -7 -7 -7 -7 -7 -7 -7 -7
-7 -7 -7 -7 -7 -7 -7 -7 -7 -8 -9 -7 -7 -7 -7 -7 -7 -6 -6 -6 -6 -6 -6 -8 -8 -9 -8 -9 -8 -8 -8 -8 -8 -7 -6 -6 -7 -6 -7 -7 -7 -7 -7 -7 -7
-7 -8 -7 -8 -8 -7 -7 -7 -8 -8 -8 -7 -7 -7 -7 -7 -7 -6 -6 -6 -6 -6 -6 -7 -9 -8 -7 -9 -8 -9 -8 -7 -6 -6 -5 -6 -6 -6 -8 -7 -7 -6 -6 -6 -7
-8 -8 -8 -8 -8 -8 -8 -8 -8 -9 -8 -7 -8 -7 -7 -7 -7 -7 -7 -6 -6 -6 -9 -8 -8 -7 -7 -9 -8 -8 -8 -6 -7 -6 -6 -7 -6 -6 -7 -6 -7 -6 -6 -6 -7
-8 -8 -8 -8 -8 -8 -8 -8 -9 -9 -8 -8 -8 -8 -8 -8 -8 -7 -7 -7 -6 -6 -8 -9 -9 -8 -9 -7 -8 -7 -8 -7 -6 -7 -6 -5 -6 -7 -7 -6 -7 -7 -6 -6 -7
-8 -8 -8 -8 -9 -8 -8 -9 -10 -8 -8 -8 -9 -8 -10 -8 -8 -8 -7 -7 -7 -6 -8 -9 -8 -8 -9 -9 -8 -8 -8 -7 -6 -6 -6 -6 -6 -6 -7 -6 -7 -7 -6 -7 -7
-8 -8 -9 -9 -9 -9 -9 -9 -9 -9 -8 -9 -9 -9 -10 -10 -8 -9 -9 -9 -7 -7 -7 -9 -8 -8 -8 -9 -8 -8 -8 -7 -7 -7 -6 -6 -7 -7 -8 -7 -7 -6 -6 -7 -7
-9 -9 -9 -9 -9 -9 -9 -10 -9 -9 -9 -9 -9 -9 -9 -10 -10 -9 -10 -10 -7 -7 -7 -7 -9 -8 -8 -8 -8 -8 -7 -7 -6 -6 -6 -6 -6 -8 -8 -7 -7 -6 -7 -7 -8
-9 -9 -9 -9 -10 -10 -10 -10 -9 -9 -10 -10 -9 -9 -9 -9 -9 -10 -10 -10 -8 -7 -7 -8 -9 -8 -8 -8 -8 -8 -7 -7 -6 -6 -6 -7 -6 -6 -8 -7 -8 -8 -8 -8 -8
-9 -9 -9 -10 -10 -10 -10 -10 -10 -10 -10 -10 -10 -10 -10 -10 -10 -10 -10 -10 -8 -7 -7 -8 -9 -8 -7 -7 -7 -8 -8 -7 -7 -6 -6 -6 -7 -8 -8 -8 -8 -8 -8 -8 -8
-9 -9 -10 -10 -11 -10 -10 -11 -10 -10 -10 -10 -10 -10 -11 -10 -11 -10 -11 -10 -10 -8 -7 -8 -9 -8 -9 -9 -8 -8 -7 -7 -7 -7 -7 -7 -8 -8 -8 -8 -8 -8 -8 -9 -9
-9 -10 -10 -11 -11 -11 -10 -11 -11 -11 -11 -10 -11 -12 -11 -12 -11 -9 -10 -11 -11 -9 -8 -8 -9 -9 -9 -9 -8 -8 -8 -8 -7 -8 -8 -8 -8 -8 -8 -7 -7 -8 -8 -8 -8
-10 -10 -11 -11 -11 -11 -11 -11 -11 -11 -10 -11 -12 -10 -10 -11 -10 -10 -10 -10 -10 -10 -9 -10 -10 -9 -9 -9 -9 -8 -8 -8 -8 -7 -8 -7 -8 -8 -8 -7 -7 -7 -8 -8 -8
Height
5906 5908 5909 5910 5911 5912 5913 5913 5914 5915 5917 5918 5918 5919 5920 5922 5922 5923 5925 5927 5928 5929 5929 5930 5931 5932 5933 5933 5934 5936 5940 5942 5939 5937 5931 5927 5927 5923 5920 5918 5917 5917 5916 5914 5912
5903 5905 5906 5908 5909 5910 5911 5912 5913 5913 5915 5916 5917 5917 5919 5921 5922 5923 5925 5926 5927 5928 5929 5930 5931 5932 5935 5935 5935 5938 5942 5938 5936 5937 5936 5929 5929 5923 5927 5923 5916 5917 5915 5914 5912
5901 5903 5904 5906 5907 5908 5909 5910 5911 5912 5914 5914 5915 5916 5918 5919 5921 5923 5923 5925 5927 5928 5929 5931 5932 5933 5938 5937 5936 5937 5939 5937 5936 5933 5935 5933 5931 5926 5907 5927 5918 5918 5916 5914 5912
5898 5899 5901 5902 5903 5904 5906 5907 5909 5910 5911 5911 5913 5914 5916 5917 5920 5921 5923 5924 5926 5928 5929 5931 5932 5934 5942 5941 5937 5940 5938 5937 5936 5934 5933 5933 5932 5932 5925 5922 5919 5919 5917 5914 5911
5893 5895 5896 5898 5899 5900 5902 5904 5906 5907 5908 5909 5911 5912 5913 5915 5918 5919 5921 5923 5925 5926 5928 5930 5931 5934 5940 5940 5938 5939 5941 5940 5939 5937 5934 5933 5931 5931 5928 5924 5922 5920 5918 5914 5911
5889 5890 5892 5894 5896 5897 5899 5900 5901 5902 5904 5906 5907 5909 5911 5913 5916 5917 5919 5921 5923 5925 5927 5929 5929 5931 5933 5937 5937 5937 5938 5940 5939 5939 5937 5934 5934 5931 5930 5926 5923 5920 5917 5914 5912
5884 5885 5887 5889 5891 5893 5894 5896 5897 5898 5900 5902 5903 5905 5907 5910 5913 5915 5917 5919 5921 5922 5924 5926 5928 5930 5936 5937 5936 5937 5938 5943 5941 5939 5939 5936 5934 5933 5930 5927 5924 5921 5918 5916 5913
5880 5881 5883 5885 5886 5888 5889 5891 5892 5894 5896 5897 5899 5901 5902 5907 5909 5912 5914 5916 5918 5920 5921 5924 5926 5928 5929 5934 5935 5936 5940 5945 5941 5939 5938 5938 5931 5934 5931 5928 5924 5921 5920 5918 5915
5876 5878 5879 5881 5882 5884 5885 5887 5888 5889 5891 5893 5895 5897 5898 5903 5905 5907 5910 5913 5915 5918 5919 5922 5924 5926 5931 5933 5939 5941 5942 5945 5944 5939 5938 5939 5938 5935 5932 5929 5926 5923 5921 5919 5917
5872 5873 5875 5877 5878 5880 5881 5883 5884 5885 5886 5888 5890 5893 5895 5898 5900 5903 5906 5909 5912 5914 5917 5920 5922 5924 5928 5936 5940 5934 5946 5942 5943 5941 5938 5942 5940 5936 5933 5931 5928 5927 5922 5920 5918
5867 5868 5870 5872 5874 5875 5877 5878 5881 5882 5882 5884 5886 5887 5889 5893 5895 5898 5901 5905 5907 5911 5913 5916 5919 5921 5930 5937 5931 5936 5940 5942 5941 5937 5936 5939 5938 5938 5933 5931 5929 5928 5924 5921 5919
5862 5864 5865 5867 5869 5870 5871 5873 5874 5877 5878 5878 5880 5882 5885 5888 5890 5893 5897 5901 5904 5907 5909 5913 5915 5921 5929 5929 5931 5934 5938 5942 5938 5936 5935 5939 5938 5936 5933 5930 5929 5927 5926 5924 5921
5857 5859 5860 5862 5864 5865 5866 5867 5869 5871 5873 5874 5875 5877 5880 5884 5885 5889 5893 5897 5900 5903 5906 5909 5916 5918 5927 5929 5929 5933 5937 5934 5937 5933 5935 5935 5934 5935 5932 5931 5928 5927 5927 5925 5923
5852 5853 5855 5857 5860 5860 5861 5862 5864 5866 5868 5869 5870 5872 5875 5878 5881 5884 5888 5893 5896 5899 5902 5906 5912 5916 5923 5925 5927 5933 5931 5933 5933 5933 5934 5932 5936 5927 5932 5929 5928 5926 5926 5924 5924
5847 5848 5850 5851 5853 5855 5857 5858 5860 5862 5865 5861 5866 5869 5871 5874 5875 5881 5884 5888 5891 5895 5899 5903 5906 5912 5919 5920 5926 5931 5925 5929 5931 5932 5937 5936 5937 5931 5931 5929 5925 5925 5925 5925 5923
5841 5842 5845 5846 5847 5849 5851 5854 5857 5860 5859 5859 5862 5864 5867 5869 5873 5874 5880 5883 5887 5890 5893 5898 5902 5906 5910 5916 5922 5927 5925 5926 5930 5933 5935 5929 5935 5932 5920 5925 5925 5924 5924 5924 5923
5836 5837 5839 5840 5842 5844 5846 5849 5853 5854 5854 5857 5858 5860 5863 5865 5867 5872 5876 5879 5883 5886 5890 5893 5898 5901 5905 5913 5919 5919 5923 5928 5932 5932 5934 5929 5930 5934 5922 5924 5924 5923 5922 5920 5920
5831 5831 5833 5835 5836 5839 5841 5844 5847 5849 5851 5852 5855 5858 5860 5861 5864 5867 5871 5875 5878 5883 5889 5891 5895 5897 5901 5907 5918 5916 5922 5926 5928 5928 5928 5921 5928 5926 5923 5922 5923 5922 5920 5917 5917
5826 5826 5826 5830 5831 5833 5836 5839 5842 5845 5846 5850 5852 5854 5856 5858 5861 5864 5868 5872 5875 5879 5885 5892 5894 5897 5899 5903 5911 5918 5917 5923 5925 5922 5926 5929 5928 5924 5918 5919 5921 5920 5918 5916 5914
5820 5821 5821 5824 5825 5827 5830 5834 5835 5838 5842 5845 5848 5850 5852 5854 5857 5859 5863 5867 5871 5875 5880 5890 5894 5898 5898 5902 5905 5910 5913 5921 5924 5925 5924 5925 5924 5923 5917 5916 5917 5919 5917 5915 5914
5814 5814 5815 5818 5819 5822 5826 5828 5829 5833 5836 5840 5842 5846 5850 5855 5853 5857 5860 5863 5866 5870 5875 5881 5891 5896 5898 5895 5902 5906 5910 5915 5920 5919 5921 5922 5913 5914 5914 5914 5914 5915 5914 5913 5912
5808 5808 5809 5811 5815 5816 5819 5822 5824 5828 5832 5835 5838 5842 5845 5848 5850 5853 5857 5860 5861 5866 5870 5876 5886 5892 5894 5896 5900 5906 5911 5914 5917 5918 5918 5918 5907 5905 5910 5910 5908 5908 5908 5910 5911
5801 5803 5803 5806 5809 5811 5814 5816 5819 5822 5826 5830 5834 5838 5840 5843 5846 5848 5852 5855 5856 5860 5865 5872 5878 5888 5892 5895 5899 5901 5907 5911 5914 5916 5912 5908 5907 5906 5905 5906 5906 5905 5905 5907 5907
5795 5796 5798 5800 5803 5806 5808 5811 5815 5817 5821 5825 5829 5833 5836 5839 5842 5844 5848 5850 5851 5854 5861 5867 5876 5884 5890 5893 5897 5898 5901 5905 5909 5912 5907 5903 5897 5898 5902 5899 5901 5903 5902 5904 5902
5788 5790 5792 5794 5797 5800 5802 5805 5810 5814 5818 5821 5826 5829 5832 5835 5839 5843 5845 5849 5846 5849 5855 5861 5870 5879 5874 5882 5890 5893 5898 5902 5904 5902 5901 5900 5893 5892 5887 5897 5897 5899 5900 5900 5899
5782 5784 5786 5788 5791 5794 5797 5801 5805 5810 5813 5818 5823 5827 5828 5831 5834 5835 5842 5844 5845 5846 5850 5856 5865 5874 5876 5880 5887 5889 5891 5889 5899 5901 5898 5889 5897 5897 5892 5893 5893 5895 5896 5895 5893
5777 5777 5779 5783 5786 5789 5793 5796 5800 5805 5809 5813 5818 5820 5825 5819 5826 5831 5834 5840 5848 5846 5847 5854 5862 5870 5876 5879 5881 5887 5890 5894 5895 5899 5900 5903 5897 5891 5889 5888 5889 5890 5890 5890 5890
Wind_Speed
19 17 15 13 12 11 10 9 10 9 9 9 9 9 8 5 5 4 3 5 5 5 5 4 6 4 3 4 8 14 9 2 7 7 11 9 9 9 6 4 11 10 9 6 2
17 16 15 14 13 12 11 9 9 9 9 9 9 9 8 6 7 5 6 6 6 6 5 5 6 5 5 5 9 16 5 4 4 6 5 9 6 9 11 9 11 14 13 8 4
20 19 19 18 17 16 15 14 13 12 12 10 10 10 9 7 8 5 7 6 6 6 6 6 7 6 7 3 6 9 4 6 5 5 7 4 9 9 19 11 16 15 14 12 8
20 21 21 21 21 20 19 19 18 17 15 14 12 12 11 10 9 7 7 6 6 6 6 7 9 9 6 3 3 8 5 4 5 6 8 7 2 11 10 15 16 16 15 14 11
20 20 19 19 19 19 20 21 20 20 18 17 16 15 14 14 11 8 9 8 8 7 7 8 9 7 4 8 5 4 2 2 2 3 7 8 12 7 8 15 15 16 17 16 13
21 21 21 21 21 20 19 18 19 20 20 20 19 19 18 17 10 12 11 11 10 9 8 10 12 11 17 9 13 9 4 3 3 3 6 10 12 15 16 14 15 18 20 19 16
20 20 20 22 23 23 22 21 20 19 21 21 22 22 21 21 16 12 12 12 11 10 10 11 14 16 6 5 8 9 4 4 3 3 4 8 0 11 12 16 16 17 20 20 18
19 19 18 18 17 17 18 21 24 22 21 22 23 23 24 19 17 15 14 13 12 12 12 11 15 15 15 11 5 3 1 4 9 11 4 8 3 8 9 13 17 17 19 18 18
18 18 18 18 18 18 18 18 18 22 25 23 23 25 26 21 20 18 17 17 16 14 13 14 17 17 10 13 2 10 11 9 5 12 6 1 10 7 8 12 14 15 16 17 18
20 20 21 20 20 19 18 18 18 19 21 26 26 25 25 24 22 20 20 18 18 17 16 17 20 18 15 7 9 15 5 7 6 13 4 2 9 8 4 9 11 7 14 15 16
22 22 23 22 21 21 21 21 21 21 21 21 25 27 25 24 26 24 22 20 20 18 18 18 24 21 13 9 19 9 11 7 9 11 3 7 7 10 1 5 9 5 14 14 15
21 21 22 22 22 22 23 24 23 21 21 21 21 27 27 25 25 24 24 21 20 19 21 22 22 20 16 19 25 15 8 8 10 17 4 6 2 11 9 5 6 8 8 3 12
22 21 21 22 21 22 23 23 23 22 22 21 22 23 27 26 26 25 24 21 20 22 22 21 18 22 17 22 22 11 10 12 10 13 2 2 8 11 12 12 9 8 9 8 12
21 22 21 21 21 22 22 22 21 21 21 24 24 23 23 27 26 25 24 22 23 23 23 19 22 20 22 25 17 9 16 21 15 3 12 4 14 5 8 13 11 11 7 9 8
22 21 20 21 21 21 21 20 18 18 15 27 22 20 22 25 30 23 24 24 24 25 27 21 27 26 27 24 18 16 17 10 11 4 5 12 3 18 6 10 9 9 4 8 8
23 23 19 20 21 21 20 20 19 19 19 22 18 18 20 25 24 29 25 25 25 27 28 24 22 25 28 23 20 19 17 11 7 4 9 20 3 15 8 2 6 6 9 9 10
22 23 22 21 21 22 21 20 21 19 25 22 20 16 18 21 25 24 25 25 27 28 28 28 22 29 31 22 21 23 14 6 9 9 6 11 7 9 7 12 4 7 11 10 12
20 24 24 21 22 21 21 21 21 23 20 21 17 16 16 19 23 23 25 25 28 27 18 25 26 31 31 27 22 22 15 14 14 14 14 17 8 13 23 18 7 8 11 14 14
20 21 25 22 22 22 22 22 17 20 25 19 18 17 17 18 20 21 23 25 27 27 24 18 21 25 24 28 24 18 17 16 18 19 8 13 13 8 20 20 14 9 12 14 11
19 21 23 23 23 23 23 23 23 25 19 19 15 18 14 18 21 22 22 24 27 28 26 14 20 20 23 21 23 24 17 19 14 12 15 9 13 14 21 21 22 9 11 7 3
20 20 22 22 24 23 21 23 25 21 21 21 23 19 16 13 19 19 19 20 28 29 29 23 18 21 23 27 22 26 18 18 17 14 13 7 17 7 10 16 20 14 10 6 2
21 21 22 21 23 23 23 24 25 24 21 22 21 18 18 18 18 20 19 19 26 27 30 32 15 23 18 24 21 17 16 16 14 12 11 14 24 7 7 11 16 10 11 11 5
20 20 23 21 21 23 22 25 23 25 22 22 20 18 19 18 19 19 20 22 28 29 30 31 24 21 19 18 21 23 22 19 18 14 24 11 26 32 20 9 3 6 6 6 12
21 21 22 22 23 21 22 24 22 23 21 22 19 17 15 14 16 14 17 18 27 28 29 33 24 22 20 23 20 26 21 17 19 14 23 25 30 8 6 8 8 12 6 9 14
19 23 21 22 23 24 24 26 24 24 21 21 17 14 15 15 8 17 16 16 23 27 30 37 29 24 19 26 22 25 21 18 20 23 30 37 17 7 6 11 9 7 19 14 17
16 19 23 23 23 23 25 25 25 25 25 22 17 13 17 14 18 18 17 18 19 24 32 40 29 25 28 21 14 15 9 32 21 16 13 19 12 17 30 26 23 20 17 19 23
14 16 21 23 24 24 26 28 28 28 26 26 21 20 16 22 17 26 23 22 14 20 27 33 30 28 20 15 17 18 21 13 9 12 10 8 17 13 25 24 22 19 22 26 27
Wind_Direction
239 239 236 232 228 227 234 237 239 235 231 220 227 228 232 226 235 219 159 162 153 131 129 134 142 130 93 84 85 88 87 113 131 43 356 49 41 64 75 62 48 41 31 24 32
236 236 233 230 229 228 231 237 239 236 229 219 221 229 233 226 237 221 192 165 153 136 125 129 137 147 90 94 93 91 177 157 93 80 39 25 54 24 46 45 40 31 23 7 345
236 238 239 240 239 240 239 239 243 242 236 231 226 227 232 229 237 194 195 175 166 157 138 133 146 151 92 90 115 119 167 92 78 105 102 52 18 25 357 23 34 19 13 8 9
238 239 241 243 245 246 246 244 242 241 241 239 235 233 233 230 235 201 200 195 185 183 169 140 154 120 122 187 156 77 109 106 117 109 91 85 25 353 14 14 16 16 14 9 8
241 243 243 243 243 244 245 246 245 244 242 242 240 239 238 235 233 223 213 222 206 201 190 163 169 146 140 211 170 139 224 355 249 118 95 69 47 22 9 9 16 14 15 17 19
244 245 244 244 244 244 244 244 244 245 244 243 242 242 241 241 239 229 221 226 210 217 204 180 179 182 176 196 152 211 157 288 172 215 104 77 42 42 7 15 21 13 16 16 15
246 247 247 247 246 245 245 244 244 242 242 242 242 243 243 244 243 236 228 230 216 216 214 193 181 173 190 133 209 143 114 249 270 220 159 69 128 5 8 12 13 17 17 21 19
243 244 244 245 245 245 246 245 243 242 242 241 240 242 243 245 242 236 224 225 215 213 216 195 187 182 179 192 158 233 140 232 256 262 221 93 285 319 18 15 12 15 18 19 21
246 245 243 244 248 249 249 249 248 244 240 241 240 240 243 242 241 237 230 217 212 206 213 196 187 179 180 166 197 317 239 202 276 271 230 100 335 286 27 12 7 0 18 18 18
250 248 248 247 249 250 251 252 253 251 245 240 238 240 239 237 238 235 233 228 219 205 209 201 187 185 184 197 239 213 241 260 234 255 225 313 277 281 61 9 8 351 1 17 12
249 250 253 253 252 252 251 252 255 254 252 250 242 241 236 236 232 230 232 226 221 215 208 205 195 198 189 206 243 206 202 233 264 245 175 256 217 260 270 5 344 349 339 9 9
251 250 250 249 250 252 253 253 252 253 253 250 247 240 236 236 236 232 230 226 221 212 211 209 205 196 184 222 226 239 214 237 256 268 215 270 260 270 279 302 318 328 308 318 5
254 255 253 249 246 249 250 252 251 251 251 250 248 243 235 233 233 232 229 220 213 211 213 217 218 191 201 243 236 222 208 248 218 249 316 352 263 236 286 286 292 307 330 313 344
252 252 251 250 246 249 250 249 245 247 251 248 246 245 236 231 233 230 227 220 214 207 215 215 200 216 206 217 216 204 229 239 251 237 265 119 303 75 251 287 282 302 323 323 332
257 255 250 248 246 246 247 244 240 241 243 250 246 245 237 230 233 228 224 218 214 210 211 210 203 213 213 213 203 207 250 237 240 238 286 276 108 297 292 294 305 339 323 334 317
256 257 249 248 246 242 241 241 240 235 232 249 250 246 240 236 232 229 224 218 214 212 212 210 217 219 211 208 210 219 246 247 243 231 256 261 202 239 277 280 302 357 337 310 310
251 254 251 250 245 241 238 236 233 226 242 249 247 247 241 236 235 231 226 220 218 215 216 209 206 211 210 205 221 221 217 208 223 239 251 242 262 248 295 268 255 341 348 304 293
259 254 252 249 246 239 235 231 228 226 237 243 242 244 244 239 234 231 228 222 217 219 219 215 219 206 210 204 217 220 203 210 237 238 268 206 273 243 240 260 268 336 329 313 310
265 260 254 249 243 239 234 229 226 233 236 239 241 238 239 237 232 232 231 226 221 219 202 226 216 224 217 214 199 219 221 210 247 292 281 268 275 287 279 267 268 328 333 326 323
266 260 259 247 243 237 235 227 221 233 236 230 225 232 234 232 229 232 230 227 224 219 206 205 221 215 229 213 212 212 205 218 228 249 257 269 254 258 267 283 278 286 320 318 43
265 258 258 247 243 237 235 231 232 232 226 221 224 233 215 232 233 224 223 227 222 225 211 195 199 216 208 219 209 201 201 203 222 235 232 249 232 228 239 285 295 282 267 208 323
264 256 255 246 243 237 234 232 233 229 226 223 227 230 229 229 231 229 226 222 231 223 217 206 208 204 232 222 198 201 225 213 224 250 239 237 269 188 256 273 301 290 232 228 306
263 256 250 243 237 235 233 234 229 231 228 225 223 227 231 235 235 231 219 228 232 220 216 204 192 196 219 204 201 213 207 219 230 230 267 207 248 266 257 274 254 188 151 245 296
259 253 247 239 232 234 228 227 227 227 222 224 223 228 233 236 240 224 228 232 232 227 213 205 199 187 229 204 218 213 210 223 210 226 233 230 242 247 244 295 270 274 218 274 300
259 250 248 235 226 224 223 218 220 219 215 220 219 223 229 237 235 244 211 221 233 226 211 201 200 191 211 189 210 207 204 228 206 235 236 241 265 254 167 276 269 253 240 264 271
271 256 242 235 226 222 218 216 214 212 213 218 216 229 228 235 208 200 235 206 232 217 208 199 196 187 236 208 189 216 231 190 210 222 290 318 344 266 283 280 278 262 245 244 257
280 261 240 231 221 214 213 212 212 213 212 210 213 217 216 227 223 202 217 188 218 222 210 205 194 197 213 203 206 218 218 236 222 235 252 246 265 273 283 281 277 264 259 263 263